EW5546 Weather Reports


time (UTC)temp
C
wind
direction
speed
KPH
gust
KPH
rain 1hr
cm
rain 24hr
cm
rain mn
cm
humidity
%
barometer
mb
20260905223042 15 216 1.6 3.2 0.00 0.00 0.00 60 1013.0
20260905222143 15 203 1.6 3.2 0.00 0.00 0.00 59 1013.0
20260905221023 15 240 1.6 3.2 0.00 0.00 0.00 59 1013.0
20260905220022 15 128 1.6 4.8 0.00 0.00 0.00 59 1013.0
20260905215023 16 234 1.6 3.2 0.00 0.00 0.00 59 1013.0
20260905214037 16 248 1.6 1.6 0.00 0.00 0.00 58 1013.0
20260905213033 16 239 1.6 3.2 0.00 0.00 0.00 57 1013.0
20260905212024 16 210 1.6 1.6 0.00 0.00 0.00 56 1013.0
20260905211023 16 205 1.6 4.8 0.00 0.00 0.00 55 1013.0
20260905210020 16 211 1.6 6.4 0.00 0.00 0.00 54 1012.7
20260905205027 16 220 0.0 1.6 0.00 0.00 0.00 53 1012.0
20260905204023 16 224 0.0 1.6 0.00 0.00 0.00 53 1012.0
20260905203044 16 225 1.6 3.2 0.00 0.00 0.00 53 1012.0
20260905202024 16 200 3.2 4.8 0.00 0.00 0.00 52 1012.0
20260905201023 16 257 1.6 4.8 0.00 0.00 0.00 52 1012.0
20260905200023 16 204 1.6 1.6 0.00 0.00 0.00 53 1012.0
20260905195022 16 58 4.8 8.0 0.00 0.00 0.00 54 1012.0
20260905194022 17 202 1.6 3.2 0.00 0.00 0.00 53 1012.0
20260905193043 16 241 1.6 3.2 0.00 0.00 0.00 54 1012.0
20260905192024 17 200 1.6 3.2 0.00 0.20 0.00 53 1012.0
20260905191018 17 237 1.6 4.8 0.00 0.20 0.00 53 1012.0
20260905190027 17 229 1.6 3.2 0.00 0.20 0.00 52 1012.0
20260905185017 17 209 1.6 3.2 0.00 0.20 0.00 51 1012.0
20260905184023 17 233 1.6 3.2 0.00 0.20 0.00 50 1012.0
20260905183023 17 196 1.6 1.6 0.00 0.20 0.00 49 1012.3
20260905182023 17 226 1.6 3.2 0.00 0.20 0.00 48 1013.0
20260905181123 17 0.0 0.0 0.00 0.20 0.00 48 1012.0
20260905180018 17 206 1.6 3.2 0.00 0.20 0.00 48 1012.0
20260905175023 17 213 1.6 1.6 0.00 0.20 0.00 48 1012.0
20260905174023 17 248 0.0 1.6 0.00 0.20 0.00 47 1012.0
20260905173023 18 203 0.0 3.2 0.00 0.20 0.00 46 1012.0
20260905172023 18 241 1.6 3.2 0.00 0.20 0.00 46 1012.0
20260905171044 18 225 1.6 6.4 0.00 0.20 0.00 46 1012.0
20260905170022 18 202 1.6 4.8 0.00 0.20 0.00 45 1012.0
20260905165019 18 203 1.6 3.2 0.00 0.20 0.00 45 1012.0
20260905164016 18 174 0.0 1.6 0.00 0.20 0.00 44 1012.0
20260905163018 18 210 1.6 3.2 0.00 0.20 0.00 44 1012.0
20260905162017 18 225 3.2 4.8 0.00 0.20 0.00 43 1012.0
20260905161023 18 82 3.2 6.4 0.00 0.20 0.00 43 1012.0
20260905160015 18 226 1.6 3.2 0.00 0.20 0.00 43 1012.0
20260905155022 18 224 3.2 4.8 0.00 0.20 0.00 43 1012.0
20260905154018 18 236 3.2 4.8 0.00 0.20 0.00 42 1012.0
20260905153043 19 226 1.6 3.2 0.00 0.20 0.00 41 1012.0
20260905152023 19 177 1.6 3.2 0.00 0.20 0.00 42 1012.0
20260905151024 20 237 3.2 9.7 0.00 0.20 0.00 41 1012.0
20260905150023 20 202 3.2 4.8 0.00 0.20 0.00 40 1011.7
20260905145016 20 244 1.6 3.2 0.00 0.20 0.00 40 1011.0
20260905144023 20 263 3.2 8.0 0.00 0.20 0.00 40 1011.0
20260905143019 21 215 3.2 6.4 0.00 0.20 0.00 39 1011.0
20260905142045 21 208 3.2 4.8 0.00 0.20 0.00 39 1011.0
20260905141522 21 215 3.2 3.2 0.00 0.20 0.00 39 1011.0
20260905140523 21 204 3.2 8.0 0.00 0.20 0.00 39 1011.0
20260905135522 22 176 3.2 4.8 0.00 0.20 0.00 40 1011.0
20260905134523 21 219 3.2 6.4 0.00 0.20 0.00 41 1011.0
20260905133522 21 180 3.2 6.4 0.00 0.20 0.00 41 1011.0
20260905132526 21 149 3.2 4.8 0.00 0.20 0.00 41 1011.0
20260905131525 21 263 3.2 4.8 0.00 0.20 0.00 40 1011.0
20260905130523 21 33 3.2 3.2 0.00 0.20 0.00 39 1011.0
20260905125528 22 273 4.8 6.4 0.00 0.20 0.00 40 1010.0
20260905124540 22 195 3.2 4.8 0.00 0.20 0.00 40 1010.3
20260905123520 21 232 3.2 4.8 0.00 0.20 0.00 41 1011.0
20260905122522 21 239 1.6 4.8 0.00 0.20 0.00 41 1011.0
20260905121523 21 210 1.6 3.2 0.00 0.20 0.00 41 1011.0
20260905120522 21 228 3.2 3.2 0.00 0.20 0.00 41 1011.0
20260905115522 21 208 4.8 6.4 0.00 0.20 0.00 41 1011.0
20260905114522 21 132 3.2 11.3 0.00 0.20 0.00 41 1010.7
20260905113527 21 191 1.6 3.2 0.00 0.20 0.00 42 1010.0
20260905112517 21 239 4.8 9.7 0.00 0.20 0.00 43 1010.0
20260905111523 21 251 3.2 3.2 0.00 0.20 0.00 43 1010.0
20260905110543 21 240 3.2 3.2 0.00 0.20 0.00 43 1010.0
20260905105522 20 224 3.2 6.4 0.00 0.20 0.00 44 1010.0
20260905104523 20 205 4.8 6.4 0.00 0.20 0.00 45 1010.0
20260905103542 20 203 3.2 6.4 0.00 0.20 0.00 45 1010.0
20260905102523 20 228 3.2 6.4 0.00 0.20 0.00 46 1010.0
20260905101537 19 189 3.2 4.8 0.00 0.20 0.00 47 1010.0
20260905100527 19 89 1.6 3.2 0.00 0.20 0.00 47 1010.0
20260905095524 19 106 3.2 6.4 0.00 0.20 0.00 47 1010.0
20260905094526 20 136 4.8 9.7 0.00 0.20 0.00 47 1010.0
20260905093522 20 213 3.2 4.8 0.00 0.20 0.00 46 1010.0
20260905092523 20 235 4.8 8.0 0.00 0.20 0.00 47 1010.0
20260905091522 20 133 3.2 4.8 0.00 0.20 0.00 48 1010.0
20260905090522 19 278 3.2 6.4 0.00 0.20 0.00 50 1010.0
20260905085522 19 210 3.2 4.8 0.00 0.20 0.00 50 1010.0
20260905084516 19 234 3.2 4.8 0.00 0.20 0.00 52 1010.0
20260905083525 18 179 3.2 4.8 0.00 0.20 0.00 53 1010.0
20260905082524 18 175 3.2 6.4 0.00 0.20 0.00 54 1010.0
20260905081526 18 236 1.6 3.2 0.00 0.20 0.00 55 1010.0
20260905080524 18 208 3.2 4.8 0.00 0.20 0.00 56 1010.0
20260905075558 18 164 1.6 4.8 0.00 0.20 0.00 57 1010.0
20260905074524 18 153 3.2 6.4 0.00 0.20 0.00 57 1009.7
20260905073522 18 241 1.6 4.8 0.00 0.20 0.00 57 1009.0
20260905072516 18 241 1.6 3.2 0.00 0.20 0.00 58 1009.0
20260905071523 17 188 3.2 4.8 0.00 0.20 0.00 58 1009.0
20260905070557 17 230 3.2 3.2 0.00 0.20 0.00 58 1009.0
20260905065526 17 194 3.2 4.8 0.00 0.20 0.00 58 1009.0
20260905064522 17 100 3.2 3.2 0.00 0.20 0.00 59 1009.0
20260905063531 17 245 3.2 6.4 0.00 0.20 0.00 59 1009.0
20260905062521 17 172 3.2 6.4 0.00 0.20 0.00 58 1008.0
20260905061523 17 240 3.2 4.8 0.00 0.20 0.00 59 1008.0
20260905060525 17 202 3.2 4.8 0.00 0.20 0.00 60 1008.0
20260905055522 17 211 3.2 4.8 0.00 0.20 0.00 60 1008.0
20260905054522 17 213 3.2 6.4 0.00 0.20 0.00 60 1008.0
20260905053525 17 230 3.2 4.8 0.00 0.20 0.00 60 1008.0
20260905052523 17 19 4.8 11.3 0.00 0.20 0.00 60 1008.0
20260905051523 17 226 3.2 6.4 0.00 0.20 0.00 61 1008.0
20260905050544 17 210 3.2 4.8 0.00 0.20 0.00 62 1008.0
20260905045524 17 2 1.6 6.4 0.00 0.20 0.00 63 1007.0
20260905044524 17 206 1.6 3.2 0.00 0.20 0.00 65 1007.0
20260905043603 17 97 3.2 6.4 0.00 0.20 0.00 66 1007.0
20260905042522 17 79 4.8 8.0 0.00 0.20 0.00 67 1007.0
20260905041522 17 31 3.2 6.4 0.00 0.20 0.00 68 1006.6
20260905040522 17 99 3.2 8.0 0.00 0.20 0.00 70 1005.9
20260905035525 17 66 4.8 9.7 0.00 0.20 0.00 70 1005.9
20260905034520 17 49 4.8 6.4 0.00 0.20 0.00 70 1005.9
20260905033523 17 157 1.6 6.4 0.00 0.20 0.00 69 1005.9
20260905032517 17 280 3.2 4.8 0.00 0.20 0.00 70 1004.9
20260905031517 17 211 1.6 3.2 0.00 0.20 0.00 70 1005.3
20260905030522 17 228 1.6 3.2 0.00 0.20 0.00 70 1005.9
20260905025523 17 217 3.2 4.8 0.00 0.20 0.00 70 1004.9
20260905024516 17 209 3.2 4.8 0.00 0.20 0.00 70 1005.3
20260905023544 17 229 3.2 6.4 0.00 0.20 0.00 70 1005.9
20260905022523 18 220 3.2 6.4 0.00 0.20 0.00 70 1004.9
20260905021542 18 226 1.6 3.2 0.00 0.20 0.00 70 1004.9
20260905020517 18 221 3.2 6.4 0.00 0.20 0.00 70 1004.9
20260905015517 18 222 3.2 6.4 0.00 0.20 0.00 70 1004.9
20260905014522 18 201 3.2 6.4 0.00 0.20 0.00 71 1004.9
20260905013523 18 227 3.2 3.2 0.00 0.20 0.00 71 1004.9
20260905012543 18 228 3.2 3.2 0.00 0.20 0.00 72 1004.9
20260905011543 18 224 3.2 6.4 0.00 0.20 0.00 72 1004.6
20260905010522 18 223 3.2 4.8 0.00 0.20 0.00 73 1003.9
20260905005544 18 252 1.6 3.2 0.00 0.20 0.00 73 1003.9
20260905004602 18 204 3.2 4.8 0.00 0.20 0.00 75 1003.9
20260905003523 18 220 1.6 4.8 0.00 0.20 0.00 76 1003.9
20260905002524 18 205 3.2 3.2 0.00 0.20 0.00 76 1003.9
20260905001519 18 223 1.6 4.8 0.00 0.20 0.00 76 1003.9
20260905000525 18 222 1.6 3.2 0.00 0.20 0.00 76 1003.9
20260904235522 18 206 1.6 3.2 0.00 0.20 0.00 77 1003.9
20260904234524 18 232 1.6 3.2 0.00 0.20 0.00 77 1003.9
20260904233541 18 203 1.6 4.8 0.00 0.20 0.00 78 1003.9
20260904232522 18 218 1.6 3.2 0.00 0.20 0.00 78 1003.9
20260904231547 18 221 1.6 3.2 0.00 0.20 0.00 78 1003.9
20260904230558 18 212 1.6 3.2 0.00 0.20 0.00 77 1003.9
20260904225522 18 203 0.0 1.6 0.00 0.20 0.00 76 1003.9
20260904224522 18 213 0.0 3.2 0.00 0.20 0.00 76 1003.9